Probability
11 11 10 11 13 14 16 16 15 16 17 16 14 11 10 8 9 10 10 9 8 8 8 9 11 11 11 12 12 12 12 12 12 9 7 5 4 4 4 4 4 3 3
14 13 13 14 16 17 17 16 16 17 18 17 15 13 11 9 9 10 10 9 9 9 9 10 11 11 11 11 11 11 11 11 11 9 7 6 6 6 6 5 4 4 4
19 18 17 17 18 19 19 18 18 19 20 20 20 18 14 10 10 11 10 10 11 11 10 10 10 11 11 11 10 10 10 10 10 9 7 7 6 6 6 6 5 5 5
25 23 22 22 22 22 21 20 20 20 22 22 22 21 18 14 13 13 12 12 12 12 11 9 9 10 12 12 11 11 11 11 10 9 7 5 4 5 5 4 4 5 6
31 29 28 28 28 26 23 21 21 21 20 20 21 21 20 17 14 14 15 14 14 14 12 10 10 11 12 11 10 11 12 12 11 10 8 5 4 4 3 2 2 4 5
33 31 30 30 30 29 26 25 25 23 21 19 19 21 21 17 12 11 13 15 16 15 14 12 12 12 11 10 9 8 9 10 11 11 10 7 6 4 2 0 0 1 2
31 30 29 29 31 32 31 30 31 29 26 23 22 22 21 16 9 7 9 13 16 16 15 15 15 14 13 11 9 7 7 7 9 10 9 7 6 5 2 1 0 0 0
31 30 29 29 32 34 34 33 34 34 32 29 25 24 23 17 9 5 5 9 14 15 16 17 18 16 14 13 12 10 8 7 6 6 5 4 4 3 2 1 1 1 1
33 33 32 32 34 37 37 37 37 35 34 31 28 27 26 20 10 4 4 9 13 14 17 18 18 16 13 12 12 11 10 7 4 2 2 2 1 1 1 1 1 2 3
34 34 34 34 34 36 38 40 40 37 34 31 30 28 27 21 9 2 3 9 12 14 17 17 15 13 10 9 10 10 9 7 5 3 2 2 2 2 2 2 3 3 4
33 33 33 32 31 31 35 39 40 37 34 31 28 27 25 18 8 2 3 7 11 14 16 15 12 9 6 4 6 8 7 6 6 5 4 5 5 5 5 5 5 5 6
29 29 28 28 27 27 31 33 33 33 32 29 26 24 20 14 8 3 2 3 6 11 13 12 9 5 2 1 2 4 4 4 6 7 7 7 8 7 6 7 7 7 8
26 26 25 25 24 24 24 24 24 26 27 26 24 21 17 12 9 6 3 2 3 6 8 7 5 3 1 1 0 1 2 4 5 6 7 7 7 6 5 5 7 9 9
23 24 25 24 21 19 17 17 18 21 23 25 24 21 15 11 10 9 7 5 4 4 5 4 3 2 2 2 1 2 3 4 5 5 6 6 6 6 5 5 6 8 7
22 23 23 21 19 16 14 13 14 16 17 19 20 19 14 10 8 7 7 7 7 5 4 4 4 4 4 4 4 5 5 5 5 6 7 6 4 4 5 6 6 5 5
23 23 21 20 19 17 13 12 11 10 8 8 10 11 9 6 4 4 4 5 5 4 4 4 5 5 6 6 6 6 6 6 7 7 6 5 3 3 4 5 6 5 5
23 22 20 19 19 18 16 15 12 7 4 3 3 3 3 2 2 2 2 3 3 3 3 4 5 6 7 7 6 6 6 6 7 6 5 4 3 2 3 4 5 6 6
22 21 18 18 18 19 18 17 15 10 8 8 5 2 0 0 1 1 1 2 3 3 4 5 6 6 7 7 6 6 5 5 5 5 5 4 3 3 3 3 4 4 5
23 20 17 16 16 17 16 16 16 14 13 13 10 6 3 1 1 1 1 3 4 4 4 5 6 6 6 6 6 5 3 3 3 4 5 5 3 3 2 2 2 2 2
22 17 15 15 15 14 14 14 16 17 16 15 14 11 6 4 3 3 3 4 5 5 5 4 4 4 4 4 3 2 1 1 1 1 3 3 2 2 1 1 1 1 0
15 12 11 13 14 13 12 12 14 18 18 15 14 12 8 6 6 6 5 5 6 6 4 3 3 3 3 2 1 1 0 0 0 0 1 1 1 2 2 1 0 0 0
9 9 9 11 12 11 10 10 12 16 17 15 14 11 8 7 7 7 6 6 6 6 5 4 4 3 2 1 1 1 0 0 0 0 0 0 0 1 2 2 1 0 0
9 9 8 9 10 9 8 8 11 14 15 14 12 11 10 9 9 8 7 6 6 6 6 6 5 4 3 1 0 0 0 0 0 0 0 0 0 0 1 2 1 0 0
9 8 7 8 10 9 7 8 10 13 13 12 11 12 12 11 10 9 8 7 6 6 5 5 4 3 3 1 0 0 0 0 0 0 0 0 0 0 0 1 1 0 0
7 7 7 8 11 11 9 9 11 12 11 10 10 10 11 11 10 9 9 8 6 5 4 3 3 3 3 3 2 1 0 0 0 0 0 0 0 0 0 0 0 0 0
6 6 7 9 12 12 10 10 12 12 9 8 8 8 9 10 9 9 9 9 6 5 4 3 3 3 4 4 4 2 1 0 0 0 0 0 0 0 1 1 1 0 0
Wind_Speed
8 7 6 6 6 6 5 5 5 5 5 5 4 4 4 3 3 3 3 2 3 3 3 3 3 2 3 3 3 3 2 2 2 1 1 2 2 2 2 2 3 3 4
7 7 7 6 6 6 6 6 5 5 5 5 5 4 4 4 4 4 4 3 3 3 2 2 3 2 3 3 2 3 2 2 3 3 2 3 3 3 3 3 3 3 3
8 8 7 7 7 7 6 6 6 5 5 5 4 4 4 3 4 4 4 3 3 3 3 3 3 3 3 2 3 3 3 3 3 3 3 3 3 3 4 4 3 2 3
8 8 8 8 7 6 6 6 6 6 5 5 4 4 4 4 3 4 4 4 4 3 3 3 3 3 3 3 3 3 3 3 4 4 3 4 3 4 4 4 3 3 3
7 7 7 7 7 6 6 6 5 6 6 5 5 5 5 4 3 4 4 4 4 3 3 3 2 1 1 2 3 3 4 4 4 4 4 4 4 4 5 4 3 3 3
6 6 6 6 6 6 6 6 6 6 6 6 6 5 5 4 2 2 5 4 4 4 4 3 3 4 3 2 2 2 3 5 5 5 5 5 5 5 4 4 3 3 3
6 6 6 6 6 6 7 6 6 6 6 6 6 6 6 4 5 5 5 5 4 4 4 4 3 2 4 4 4 5 4 4 5 6 5 5 5 5 5 6 5 5 3
6 6 6 6 6 7 7 7 7 6 6 6 6 6 6 5 7 6 5 6 5 5 5 4 4 3 2 3 4 4 4 5 6 6 4 4 4 3 5 5 5 5 4
6 6 6 6 6 6 7 7 6 6 6 6 6 6 6 5 7 6 6 6 5 6 5 5 4 4 2 3 5 4 4 4 3 2 2 2 2 4 4 5 5 5 5
5 5 5 6 6 6 6 6 5 6 6 6 6 6 6 5 7 7 7 5 5 5 5 5 4 4 4 4 5 5 5 4 4 4 5 6 6 7 8 7 6 6 5
3 3 4 4 5 5 5 5 4 5 5 5 5 5 5 5 7 8 8 6 5 5 5 4 3 6 5 5 6 5 3 3 4 5 5 5 6 6 7 7 6 6 6
2 2 3 4 4 4 4 4 4 5 5 6 6 5 5 5 5 7 9 8 6 5 4 3 3 7 6 6 5 2 2 4 4 4 4 4 5 5 5 6 6 7 6
1 2 2 3 3 3 4 5 4 5 5 5 5 5 4 4 5 7 8 8 6 5 3 1 3 6 6 6 6 6 6 5 5 5 5 4 4 4 4 5 6 6 6
2 2 3 3 3 3 3 3 4 4 5 5 5 5 4 4 4 4 5 5 6 5 4 4 6 6 5 4 5 7 6 5 5 5 4 4 4 4 5 5 5 5 6
3 3 3 3 3 3 3 2 4 4 4 5 4 4 4 4 3 3 3 4 4 4 4 4 4 4 5 5 5 5 5 5 5 5 5 5 5 5 4 4 4 4 5
4 4 4 4 3 3 3 3 2 3 4 5 4 4 3 2 3 5 4 3 3 4 4 5 4 5 5 5 5 5 5 5 5 5 6 5 5 5 5 5 5 5 6
5 5 4 4 4 4 3 3 3 2 3 4 4 4 3 2 4 6 6 5 5 6 6 5 5 5 5 5 5 5 5 5 5 5 6 5 5 5 5 5 5 6 6
5 4 4 4 4 4 4 4 4 4 3 3 4 5 6 5 6 7 7 6 5 6 6 6 6 5 5 5 5 5 5 5 5 6 6 5 6 6 6 6 6 6 6
4 3 3 3 4 4 4 4 4 4 3 3 2 3 6 5 6 6 7 6 5 6 6 6 6 5 5 5 5 5 5 5 5 5 5 5 6 6 6 6 6 5 7
3 2 3 3 3 3 3 4 4 4 4 3 3 3 4 4 4 4 6 6 5 5 5 5 5 5 5 5 5 5 5 5 6 6 6 6 6 6 7 7 6 6 6
2 2 3 4 3 3 3 3 3 4 4 3 3 2 3 5 5 5 5 6 6 5 5 5 5 5 5 5 5 6 6 6 6 6 6 6 6 6 6 6 7 6 6
3 3 3 3 3 3 3 3 4 4 4 4 3 3 6 5 4 4 5 4 4 4 4 4 4 4 4 5 5 6 6 6 6 6 6 6 6 6 7 7 6 6 6
4 3 2 2 3 3 4 4 4 4 4 3 3 3 3 4 4 4 4 3 3 3 3 4 4 4 4 4 5 5 6 6 6 6 6 6 6 6 6 6 7 7 7
3 3 3 3 3 3 3 3 3 3 3 3 2 2 3 3 3 3 3 3 3 3 3 3 4 5 6 5 4 5 4 5 6 6 8 7 7 6 6 6 7 8 8
3 3 3 3 3 3 3 3 3 3 3 2 2 2 2 2 3 3 3 3 3 3 4 4 4 4 6 7 6 4 2 3 4 6 6 7 7 7 7 8 7 7 7
3 3 3 3 3 3 3 3 3 3 2 2 2 2 2 2 2 2 2 2 3 3 4 4 4 5 6 6 6 4 3 3 4 6 7 7 7 7 7 7 8 7 7
Wind_Direction
194 191 190 187 188 189 194 192 189 187 182 187 193 199 203 205 204 210 223 207 213 215 222 219 225 245 243 232 227 230 229 229 218 159 148 145 166 193 168 193 173 182 142
187 186 186 186 188 193 191 190 185 182 185 184 191 198 204 204 206 210 219 212 219 226 228 228 230 222 229 242 235 229 223 225 217 189 183 177 191 192 190 204 191 196 170
184 187 185 190 192 196 193 190 186 183 185 185 189 194 200 206 212 215 217 218 226 232 231 236 239 230 232 225 236 226 218 213 210 204 191 185 192 194 197 205 198 217 213
186 191 188 192 192 192 194 191 188 186 185 187 188 193 196 205 214 223 221 220 220 223 227 231 238 233 230 226 224 227 223 216 207 210 193 190 191 197 207 207 203 200 217
188 193 191 190 187 186 192 192 191 195 191 185 192 199 200 202 213 225 226 215 211 212 217 227 230 240 274 258 250 226 217 220 212 209 202 202 199 196 208 213 211 209 204
188 193 187 188 189 189 192 190 190 195 197 192 199 205 209 205 153 219 255 224 211 211 215 218 207 194 185 202 254 260 250 231 223 219 211 210 208 208 209 213 211 217 217
190 193 187 193 198 200 199 194 196 199 197 199 205 209 213 191 170 199 239 238 221 220 222 228 233 193 202 201 200 212 225 241 247 247 233 223 214 210 212 212 213 228 239
192 194 194 198 202 202 202 203 203 205 204 202 205 211 212 193 179 199 223 230 227 225 229 231 233 225 224 222 214 214 215 216 229 238 240 241 225 208 215 223 222 229 235
198 200 200 202 204 203 204 205 205 207 214 210 207 212 214 193 175 188 212 221 219 224 228 227 229 220 199 241 227 221 217 209 197 203 239 233 227 213 225 226 217 227 231
202 200 201 206 209 210 206 205 208 207 215 216 211 212 211 204 175 186 210 226 220 222 220 219 217 226 191 220 230 223 222 220 207 188 196 205 211 205 209 226 229 236 242
209 201 199 204 211 214 214 212 212 211 213 216 211 208 208 203 180 189 209 232 229 228 226 222 199 177 198 220 245 239 231 239 224 219 214 209 208 207 209 214 228 243 251
196 199 202 207 213 206 206 209 209 213 212 210 211 213 206 195 188 190 204 228 257 243 239 231 175 163 189 210 225 213 200 233 232 228 226 221 218 216 214 217 222 237 253
192 211 212 210 218 217 212 210 209 213 218 214 213 214 210 197 176 179 194 212 233 241 239 117 139 166 184 201 210 208 210 223 227 228 234 235 234 232 223 215 217 225 235
208 217 217 217 218 216 227 223 223 226 226 221 218 217 216 207 196 184 192 196 202 212 213 166 169 184 213 218 200 209 223 233 239 239 239 238 232 221 225 227 227 224 230
221 222 227 227 221 212 219 240 236 233 235 232 228 219 217 218 201 189 205 207 207 195 197 201 198 192 203 213 219 220 224 222 227 237 242 238 230 226 226 226 232 238 244
240 234 229 229 221 217 211 223 225 238 217 211 229 237 226 196 165 176 195 205 185 179 207 215 214 217 219 220 221 221 224 231 232 233 238 239 235 233 232 226 226 233 241
245 247 245 239 233 230 224 230 237 224 194 196 197 193 200 168 167 178 182 179 186 188 215 225 225 227 228 227 230 233 231 229 234 238 237 235 236 237 238 236 234 236 243
251 246 243 237 237 240 236 233 233 230 223 223 193 178 178 178 181 179 172 172 194 209 226 228 229 230 232 234 237 240 240 232 227 233 235 235 235 237 239 240 235 236 243
259 251 246 248 241 237 232 231 230 231 232 232 211 169 174 179 184 184 183 211 215 214 223 229 233 235 236 236 243 246 245 241 239 239 237 239 237 238 241 245 244 231 241
256 253 246 243 243 239 236 235 232 227 226 221 216 196 168 181 202 195 207 224 231 229 231 232 234 237 239 239 237 239 238 238 238 238 238 238 241 242 243 245 249 245 242
267 245 229 241 242 243 247 246 245 240 233 229 226 196 182 212 222 220 221 223 231 234 231 234 233 235 237 239 239 240 244 244 240 242 241 241 242 242 244 244 243 246 250
273 256 248 253 258 258 257 254 250 244 236 236 230 189 188 223 233 232 228 230 233 238 236 237 240 240 241 240 242 244 244 245 245 244 243 243 240 240 239 240 244 246 245
271 267 263 261 259 249 244 249 249 246 242 236 227 220 205 228 240 239 240 238 234 233 231 233 241 243 242 246 246 244 245 246 247 247 247 248 249 247 244 245 247 250 250
289 286 281 272 260 256 255 252 246 247 247 241 239 241 239 238 243 246 249 245 238 234 232 234 241 248 251 253 254 253 252 257 257 247 247 253 255 254 251 247 247 250 251
289 287 278 269 259 253 250 247 243 240 240 238 241 245 243 241 243 242 243 242 241 241 242 243 243 246 249 251 254 260 264 257 259 269 257 254 255 256 257 255 252 250 248
281 277 272 270 265 258 251 244 240 242 241 241 242 253 261 256 248 248 245 247 251 250 253 252 253 258 259 254 251 249 233 233 237 252 260 256 251 252 255 256 256 255 251